FW6147 Weather Reports


time (UTC)temp
C
wind
direction
speed
KPH
gust
KPH
rain 1hr
cm
rain 24hr
cm
rain mn
cm
humidity
%
barometer
mb
20260506114053 6 0 0.0 0.0 0.00 0.05 0.00 81 1017.7
20260506113557 6 0 0.0 6.4 0.00 0.05 0.00 81 1017.8
20260506113057 6 0 0.0 6.4 0.00 0.05 0.00 80 1017.7
20260506112554 6 239 0.0 4.8 0.00 0.05 0.00 80 1017.7
20260506112054 6 0 0.0 4.8 0.00 0.05 0.00 81 1017.7
20260506111558 6 0 0.0 0.0 0.00 0.05 0.00 81 1017.7
20260506111058 6 0 0.0 0.0 0.00 0.05 0.00 80 1017.6
20260506110554 6 0 0.0 0.0 0.00 0.05 0.00 80 1017.7
20260506110055 6 0 0.0 0.0 0.00 0.05 0.00 79 1017.7
20260506105554 7 0 0.0 0.0 0.00 0.10 0.00 78 1017.7
20260506105058 7 0 0.0 0.0 0.00 0.10 0.00 77 1017.7
20260506104600 7 0 0.0 0.0 0.00 0.10 0.00 77 1017.7
20260506104057 7 0 0.0 0.0 0.00 0.10 0.00 76 1017.6
20260506103556 7 0 0.0 0.0 0.00 0.10 0.00 75 1017.6
20260506103057 8 0 0.0 0.0 0.00 0.10 0.00 75 1017.6
20260506102556 8 0 0.0 0.0 0.00 0.10 0.00 74 1017.5
20260506102055 8 0 0.0 0.0 0.00 0.10 0.00 74 1017.6
20260506101556 8 0 0.0 0.0 0.00 0.10 0.00 74 1017.6
20260506101057 8 0 0.0 0.0 0.00 0.10 0.00 74 1017.6
20260506100554 8 0 0.0 0.0 0.00 0.10 0.00 74 1017.6
20260506095556 9 0 0.0 0.0 0.00 0.10 0.00 73 1017.5
20260506095055 9 0 0.0 0.0 0.00 0.10 0.00 73 1017.5
20260506094611 9 0 0.0 0.0 0.00 0.10 0.00 72 1017.5
20260506094057 9 0 0.0 0.0 0.00 0.10 0.00 73 1017.6
20260506093557 9 0 0.0 0.0 0.00 0.10 0.00 73 1017.6
20260506093102 9 0 0.0 0.0 0.00 0.10 0.00 73 1017.6
20260506092553 9 0 0.0 0.0 0.00 0.10 0.00 73 1017.6
20260506092054 9 0 0.0 0.0 0.00 0.10 0.00 74 1017.6
20260506091606 9 0 0.0 0.0 0.00 0.10 0.00 74 1017.6
20260506091056 9 0 0.0 0.0 0.00 0.10 0.00 72 1017.4
20260506090553 10 0 0.0 0.0 0.00 0.10 0.00 73 1017.5
20260506085553 10 0 0.0 0.0 0.00 0.10 0.00 72 1017.3
20260506085057 10 0 0.0 0.0 0.00 0.10 0.00 72 1017.3
20260506084601 10 0 0.0 0.0 0.00 0.10 0.00 71 1017.3
20260506084057 10 0 0.0 0.0 0.00 0.10 0.00 70 1017.4
20260506083557 10 0 0.0 0.0 0.00 0.10 0.00 69 1017.4
20260506083101 10 0 0.0 0.0 0.00 0.10 0.00 68 1017.4
20260506082554 10 0 0.0 0.0 0.00 0.10 0.00 67 1017.5
20260506082053 11 0 0.0 0.0 0.00 0.10 0.00 66 1017.4
20260506081558 11 0 0.0 0.0 0.00 0.10 0.00 65 1017.6
20260506081054 11 0 0.0 1.6 0.00 0.10 0.00 65 1017.6
20260506080554 11 0 0.0 1.6 0.00 0.10 0.00 64 1017.7
20260506080108 11 0 0.0 0.0 0.00 0.10 0.00 64 1017.6
20260506073106 12 0 3.2 9.7 0.00 0.10 0.00 59 1017.7
20260506072554 12 307 1.6 8.0 0.00 0.10 0.00 58 1017.6
20260506072055 12 0 0.0 8.0 0.00 0.10 0.00 58 1017.7
20260506071557 12 299 0.0 16.1 0.00 0.10 0.00 57 1017.6
20260506071058 12 355 8.0 16.1 0.00 0.10 0.00 57 1017.7
20260506070554 12 227 1.6 12.9 0.00 0.10 0.00 59 1017.8
20260506062052 12 0 0.0 0.0 0.00 0.10 0.10 54 1017.3
20260506061552 13 0 0.0 8.0 0.00 0.10 0.10 53 1017.3
20260506061054 13 0 0.0 12.9 0.00 0.10 0.10 52 1017.3
20260506060552 13 0 0.0 12.9 0.00 0.10 0.10 51 1017.2
20260506051054 13 0 0.0 8.0 0.00 0.10 0.10 49 1016.5
20260506050551 13 0 0.0 11.3 0.00 0.10 0.10 49 1016.4
20260506045056 13 0 0.0 16.1 0.00 0.10 0.10 48 1016.3
20260506044554 14 0 3.2 17.7 0.00 0.10 0.10 47 1016.2
20260506044055 14 171 0.0 17.7 0.00 0.10 0.10 47 1016.1
20260506043553 14 207 4.8 11.3 0.00 0.10 0.10 46 1015.9
20260506043102 14 217 3.2 11.3 0.00 0.10 0.10 46 1015.9
20260506042555 14 0 3.2 14.5 0.00 0.10 0.10 45 1015.9
20260506042057 15 189 4.8 16.1 0.00 0.10 0.10 45 1015.8
20260506041556 15 180 4.8 16.1 0.00 0.10 0.10 45 1015.7
20260506041054 15 184 1.6 16.1 0.00 0.10 0.10 45 1015.8
20260506040556 15 207 4.8 14.5 0.00 0.10 0.10 45 1015.5
20260506040056 15 210 4.8 20.9 0.00 0.10 0.10 45 1015.5
20260506035554 15 194 4.8 20.9 0.00 0.10 0.10 45 1015.4
20260506035057 15 200 6.4 19.3 0.00 0.10 0.10 44 1015.4
20260506034558 15 213 6.4 14.5 0.00 0.10 0.10 44 1015.3
20260506034056 15 186 3.2 19.3 0.00 0.10 0.10 43 1015.3
20260506033555 15 193 4.8 19.3 0.00 0.10 0.10 42 1015.2
20260506033114 15 230 8.0 24.1 0.00 0.10 0.10 41 1015.2
20260506032556 15 175 6.4 24.1 0.00 0.10 0.10 41 1015.1
20260506032056 15 221 6.4 19.3 0.00 0.10 0.10 40 1015.1
20260506031554 15 186 8.0 19.3 0.00 0.10 0.10 40 1015.0
20260506031054 15 256 6.4 20.9 0.00 0.10 0.10 39 1014.9
20260506030555 16 216 4.8 22.5 0.00 0.10 0.10 38 1014.8
20260506025554 16 293 8.0 17.7 0.00 0.10 0.10 37 1014.6
20260506025057 16 271 8.0 16.1 0.00 0.10 0.10 37 1014.5
20260506024614 16 269 6.4 22.5 0.00 0.10 0.10 36 1014.3
20260506024055 16 248 9.7 22.5 0.00 0.10 0.10 35 1014.3
20260506023555 16 293 8.0 19.3 0.00 0.10 0.10 35 1014.3
20260506023103 16 243 8.0 25.7 0.00 0.10 0.10 35 1014.3
20260506022554 16 191 8.0 25.7 0.00 0.10 0.10 35 1014.1
20260506022056 16 302 11.3 25.7 0.00 0.10 0.10 34 1014.0
20260506021600 17 250 8.0 22.5 0.00 0.10 0.10 34 1013.9
20260506021059 17 248 8.0 17.7 0.00 0.10 0.10 33 1013.9
20260506020553 17 256 6.4 30.6 0.00 0.10 0.10 33 1013.8
20260506020055 17 269 11.3 30.6 0.00 0.10 0.10 32 1013.7
20260506015600 17 256 8.0 19.3 0.00 0.10 0.10 32 1013.6
20260506015055 17 0 1.6 16.1 0.00 0.10 0.10 32 1013.6
20260506014557 18 280 0.0 17.7 0.00 0.10 0.10 31 1013.5
20260506014056 18 255 3.2 17.7 0.00 0.10 0.10 31 1013.4
20260506013553 18 243 3.2 19.3 0.00 0.10 0.10 30 1013.5
20260506013101 19 0 9.7 22.5 0.00 0.10 0.10 27 1013.3
20260506012555 19 250 9.7 27.4 0.00 0.10 0.10 27 1013.3
20260506012057 19 250 9.7 27.4 0.00 0.10 0.10 27 1013.3
20260506011620 19 259 11.3 24.1 0.00 0.10 0.10 27 1013.2
20260506011054 20 243 11.3 22.5 0.00 0.10 0.10 26 1013.2
20260506010554 20 219 9.7 20.9 0.00 0.10 0.10 26 1013.1
20260506010115 20 260 9.7 20.9 0.00 0.10 0.10 26 1013.0
20260506005557 20 224 9.7 20.9 0.00 0.10 0.10 25 1013.0
20260506005059 20 224 9.7 20.9 0.00 0.10 0.10 26 1012.9
20260506004555 21 246 11.3 22.5 0.00 0.10 0.10 26 1012.9
20260506004056 21 231 8.0 27.4 0.00 0.10 0.10 27 1012.8
20260506003555 21 257 9.7 27.4 0.00 0.10 0.10 27 1012.8
20260506003057 20 272 9.7 27.4 0.00 0.10 0.10 26 1012.8
20260506002553 20 264 11.3 33.8 0.00 0.10 0.10 26 1012.7
20260506002054 20 256 12.9 33.8 0.00 0.10 0.10 26 1012.7
20260506001558 21 254 9.7 24.1 0.00 0.10 0.10 26 1012.7
20260506001055 21 252 11.3 22.5 0.00 0.10 0.10 25 1012.7
20260506000558 21 226 9.7 22.5 0.00 0.10 0.10 26 1012.7
20260506000058 21 271 11.3 22.5 0.00 0.10 0.10 27 1012.7
20260505235556 22 255 9.7 20.9 0.00 0.10 0.10 26 1012.7
20260505235055 22 252 6.4 19.3 0.00 0.10 0.10 26 1012.5
20260505234554 22 252 11.3 24.1 0.00 0.10 0.10 25 1012.6
20260505234053 22 255 9.7 24.1 0.00 0.10 0.10 25 1012.6
20260505233555 22 251 9.7 20.9 0.00 0.10 0.10 25 1012.6
20260505233053 23 0 6.4 33.8 0.00 0.10 0.10 25 1012.7
20260505232556 22 199 9.7 33.8 0.00 0.10 0.10 25 1012.7
20260505232055 22 193 12.9 33.8 0.00 0.10 0.10 24 1012.7
20260505231555 23 262 9.7 24.1 0.00 0.10 0.10 25 1012.5
20260505231055 23 255 9.7 24.1 0.00 0.10 0.10 25 1012.6
20260505230555 23 259 11.3 24.1 0.00 0.10 0.10 26 1012.7
20260505230100 23 233 3.2 19.3 0.00 0.10 0.10 25 1012.6
20260505225555 22 248 0.0 19.3 0.00 0.10 0.10 26 1012.6
20260505225055 22 224 4.8 19.3 0.00 0.10 0.10 28 1012.7
20260505224554 22 190 0.0 25.7 0.00 0.10 0.10 27 1012.7
20260505224054 22 0 4.8 25.7 0.00 0.10 0.10 27 1013.0
20260505223555 22 0 1.6 22.5 0.00 0.10 0.10 27 1012.9
20260505223057 22 219 8.0 22.5 0.00 0.10 0.10 26 1012.9
20260505222554 23 0 1.6 20.9 0.00 0.10 0.10 25 1012.9
20260505222054 23 224 8.0 20.9 0.00 0.10 0.10 26 1013.0
20260505221604 23 217 3.2 14.5 0.00 0.10 0.10 26 1013.1
20260505221055 23 197 3.2 29.0 0.00 0.10 0.10 27 1013.2
20260505220556 23 203 9.7 29.0 0.00 0.10 0.10 25 1013.2
20260505220103 23 255 11.3 29.0 0.00 0.10 0.10 26 1013.1
20260505215556 23 266 6.4 29.0 0.00 0.10 0.10 25 1013.1
20260505215057 23 245 11.3 24.1 0.00 0.10 0.10 27 1013.2
20260505214601 23 237 4.8 22.5 0.00 0.10 0.10 25 1013.3
20260505214055 23 218 6.4 22.5 0.00 0.10 0.10 24 1013.3
20260505213554 24 221 6.4 22.5 0.00 0.10 0.10 25 1013.3
20260505213057 23 0 3.2 22.5 0.00 0.10 0.10 27 1013.3
20260505212554 23 268 11.3 25.7 0.00 0.10 0.10 26 1013.5
20260505212056 23 260 12.9 25.7 0.00 0.10 0.10 26 1013.6
20260505211602 23 257 8.0 30.6 0.00 0.10 0.10 26 1013.6
20260505211056 23 0 9.7 30.6 0.00 0.10 0.10 27 1013.5
20260505210555 23 241 14.5 32.2 0.00 0.10 0.10 27 1013.8
20260505210056 23 258 14.5 32.2 0.00 0.10 0.10 25 1013.8
20260505205554 23 231 3.2 20.9 0.00 0.10 0.10 26 1013.9
20260505205056 23 241 4.8 20.9 0.00 0.10 0.10 27 1013.8
20260505204606 23 197 4.8 22.5 0.00 0.10 0.10 27 1013.8
20260505204056 23 0 3.2 22.5 0.00 0.10 0.10 27 1013.8
20260505203558 23 229 1.6 17.7 0.00 0.10 0.10 29 1013.8
20260505203107 23 203 3.2 25.7 0.00 0.10 0.10 29 1014.0
20260505202555 23 223 6.4 25.7 0.00 0.10 0.10 29 1013.8
20260505202054 23 0 4.8 22.5 0.00 0.10 0.10 30 1013.9
20260505201557 23 0 3.2 14.5 0.00 0.10 0.10 30 1013.9
20260505201055 23 0 3.2 14.5 0.00 0.10 0.10 30 1013.9
20260505200558 23 0 0.0 17.7 0.00 0.10 0.10 31 1013.9
20260505200058 23 0 0.0 17.7 0.00 0.10 0.10 32 1014.1
20260505195554 22 224 4.8 14.5 0.00 0.10 0.10 34 1014.2
20260505195054 22 0 0.0 16.1 0.00 0.10 0.10 37 1014.1
20260505194602 22 0 0.0 25.7 0.00 0.10 0.10 34 1014.3
20260505194054 21 206 3.2 27.4 0.00 0.10 0.10 38 1014.3
20260505193553 21 208 4.8 35.4 0.00 0.10 0.10 37 1014.3
20260505193056 21 0 6.4 35.4 0.00 0.10 0.10 39 1014.5
20260505192556 22 0 1.6 11.3 0.00 0.10 0.10 37 1014.5
20260505192055 22 257 0.0 16.1 0.00 0.10 0.10 38 1014.6
20260505191554 22 265 4.8 16.1 0.00 0.10 0.10 39 1014.8
20260505191056 21 0 1.6 17.7 0.00 0.10 0.10 39 1015.1
20260505190555 21 0 0.0 24.1 0.00 0.10 0.10 40 1015.1
20260505190055 21 231 4.8 24.1 0.00 0.10 0.10 40 1015.2
20260505185555 21 248 3.2 20.9 0.00 0.10 0.10 41 1015.2
20260505185055 21 264 6.4 20.9 0.00 0.10 0.10 40 1015.4
20260505184557 21 263 6.4 19.3 0.00 0.10 0.10 43 1015.2
20260505184055 20 214 1.6 20.9 0.00 0.10 0.10 44 1015.2
20260505183557 20 249 0.0 27.4 0.00 0.10 0.10 47 1015.3
20260505183055 20 0 8.0 27.4 0.00 0.10 0.10 44 1015.5
20260505182555 21 0 1.6 12.9 0.00 0.10 0.10 45 1015.3
20260505182054 21 153 1.6 14.5 0.00 0.10 0.10 44 1015.4
20260505181553 21 285 4.8 14.5 0.00 0.10 0.10 46 1015.4
20260505181054 21 0 1.6 17.7 0.00 0.10 0.10 44 1015.5
20260505180554 20 0 1.6 17.7 0.00 0.10 0.10 51 1015.5
20260505180057 20 292 0.0 22.5 0.00 0.10 0.10 48 1015.5
20260505175556 19 0 4.8 22.5 0.00 0.10 0.10 50 1015.6
20260505175056 19 264 1.6 12.9 0.00 0.10 0.10 50 1015.6
20260505174603 19 238 3.2 14.5 0.00 0.10 0.10 51 1015.6
20260505174055 19 0 1.6 14.5 0.00 0.10 0.10 53 1015.7
20260505173554 19 240 0.0 12.9 0.00 0.10 0.10 52 1015.7
20260505173053 19 0 0.0 12.9 0.00 0.10 0.10 53 1015.7
20260505172555 19 0 1.6 20.9 0.00 0.10 0.10 53 1015.7
20260505172055 19 0 1.6 20.9 0.00 0.10 0.10 53 1015.6
20260505171553 19 0 0.0 8.0 0.00 0.10 0.10 56 1015.5
20260505171055 18 0 0.0 11.3 0.00 0.10 0.10 58 1015.7
20260505170554 18 0 0.0 11.3 0.00 0.10 0.10 59 1015.8
20260505170053 18 0 0.0 16.1 0.00 0.10 0.10 59 1015.9
20260505165553 18 0 0.0 16.1 0.00 0.10 0.10 60 1015.8
20260505165055 17 0 0.0 8.0 0.00 0.10 0.10 62 1015.9
20260505164600 17 0 0.0 16.1 0.00 0.10 0.10 65 1015.8
20260505164055 17 0 3.2 16.1 0.00 0.10 0.10 65 1015.9
20260505163554 16 0 0.0 22.5 0.00 0.10 0.10 67 1015.9
20260505163057 16 0 1.6 22.5 0.00 0.10 0.10 70 1015.9
20260505162554 15 0 11.3 22.5 0.00 0.10 0.10 71 1015.9
20260505162056 15 157 6.4 20.9 0.00 0.10 0.10 73 1015.9
20260505161558 15 158 12.9 20.9 0.00 0.10 0.10 74 1016.0
20260505161056 14 172 3.2 14.5 0.00 0.10 0.10 77 1016.0
20260505160558 14 0 3.2 14.5 0.00 0.10 0.10 82 1016.0
20260505153110 12 0 0.0 0.0 0.00 0.10 0.10 89 1016.0
20260505152556 12 0 0.0 0.0 0.00 0.10 0.10 88 1016.0
20260505152055 12 0 0.0 0.0 0.00 0.10 0.10 88 1015.9
20260505151558 12 0 0.0 0.0 0.00 0.10 0.10 89 1015.9
20260505151056 12 0 0.0 0.0 0.00 0.10 0.10 89 1015.9
20260505150554 12 0 0.0 0.0 0.00 0.10 0.10 88 1015.9
20260505140555 12 0 0.0 0.0 0.00 0.10 0.10 89 1015.3
20260505124601 12 0 0.0 0.0 0.05 0.10 0.10 89 1014.9
20260505124056 12 0 0.0 0.0 0.03 0.08 0.08 89 1015.0
20260505123555 12 0 0.0 0.0 0.03 0.08 0.08 89 1014.7
20260505123059 12 0 0.0 0.0 0.03 0.08 0.08 88 1014.5
20260505122556 12 0 0.0 0.0 0.03 0.08 0.08 88 1014.3
20260505122054 12 0 0.0 0.0 0.03 0.08 0.08 88 1014.4
20260505121557 12 0 0.0 0.0 0.03 0.08 0.08 88 1014.3
20260505121055 12 0 0.0 0.0 0.03 0.08 0.08 88 1014.5
20260505120554 12 0 0.0 0.0 0.03 0.08 0.08 88 1014.6
20260505120103 12 0 0.0 0.0 0.03 0.08 0.08 87 1014.8
20260505115554 12 0 0.0 0.0 0.05 0.08 0.08 87 1014.9
20260505115055 12 0 0.0 0.0 0.05 0.08 0.08 87 1015.1
20260505114555 12 0 0.0 0.0 0.05 0.05 0.05 87 1015.1